| time (UTC) | temp C | wind direction | speed KPH | gust KPH | rain 1hr cm | rain 24hr cm | rain mn cm | humidity % | barometer mb |
| 20260502130650 | 13 | 5 | 19.3 | 32.2 | 0.00 | 4.83 | 0.00 | 90 | 1019.4 |
| 20260502130151 | 13 | 353 | 19.3 | 29.0 | 0.00 | 4.83 | 0.00 | 91 | 1019.4 |
| 20260502123650 | 13 | 344 | 14.5 | 19.3 | 0.00 | 4.83 | 0.00 | 92 | 1019.2 |
| 20260502123150 | 13 | 336 | 11.3 | 19.3 | 0.00 | 4.83 | 0.00 | 93 | 1019.2 |
| 20260502122649 | 13 | 350 | 12.9 | 19.3 | 0.00 | 4.83 | 0.00 | 93 | 1019.1 |
| 20260502122149 | 13 | 341 | 14.5 | 22.5 | 0.00 | 4.83 | 0.00 | 93 | 1019.0 |
| 20260502121650 | 13 | 328 | 14.5 | 19.3 | 0.00 | 4.83 | 0.00 | 93 | 1018.9 |
| 20260502120650 | 13 | 332 | 16.1 | 20.9 | 0.00 | 4.83 | 0.00 | 93 | 1018.7 |
| 20260502120149 | 13 | 337 | 19.3 | 24.1 | 0.00 | 4.83 | 0.00 | 93 | 1018.6 |
| 20260502115649 | 13 | 337 | 14.5 | 22.5 | 0.00 | 4.83 | 0.00 | 93 | 1018.6 |
| 20260502113649 | 13 | 329 | 14.5 | 19.3 | 0.00 | 4.83 | 0.00 | 94 | 1018.4 |
| 20260502113149 | 13 | 321 | 12.9 | 19.3 | 0.00 | 4.83 | 0.00 | 94 | 1018.4 |
| 20260502112650 | 13 | 318 | 11.3 | 19.3 | 0.00 | 4.83 | 0.00 | 94 | 1018.3 |
| 20260502112149 | 13 | 325 | 14.5 | 19.3 | 0.00 | 4.83 | 0.00 | 94 | 1018.2 |
| 20260502111649 | 13 | 332 | 14.5 | 19.3 | 0.00 | 4.83 | 0.00 | 94 | 1018.2 |
| 20260502111149 | 13 | 323 | 14.5 | 20.9 | 0.00 | 4.83 | 0.00 | 94 | 1018.1 |
| 20260502110649 | 13 | 330 | 11.3 | 20.9 | 0.00 | 4.83 | 0.00 | 94 | 1018.0 |
| 20260502110149 | 13 | 324 | 14.5 | 19.3 | 0.00 | 4.83 | 0.00 | 94 | 1017.8 |
| 20260502105649 | 13 | 337 | 12.9 | 19.3 | 0.00 | 4.83 | 0.00 | 94 | 1017.7 |
| 20260502104648 | 13 | 343 | 9.7 | 16.1 | 0.00 | 4.83 | 0.00 | 95 | 1017.6 |
| 20260502104148 | 13 | 326 | 9.7 | 12.9 | 0.00 | 4.83 | 0.00 | 95 | 1017.7 |
| 20260502103649 | 13 | 311 | 8.0 | 11.3 | 0.00 | 4.83 | 0.00 | 95 | 1017.5 |
| 20260502103148 | 13 | 331 | 8.0 | 11.3 | 0.00 | 4.83 | 0.00 | 95 | 1017.4 |
| 20260502102648 | 13 | 318 | 9.7 | 16.1 | 0.00 | 4.83 | 0.00 | 95 | 1017.3 |
| 20260502102148 | 13 | 324 | 8.0 | 16.1 | 0.00 | 4.83 | 0.00 | 95 | 1017.2 |
| 20260502101147 | 13 | 335 | 8.0 | 14.5 | 0.00 | 4.83 | 0.00 | 94 | 1017.0 |
| 20260502100648 | 13 | 337 | 9.7 | 16.1 | 0.00 | 4.83 | 0.00 | 94 | 1016.9 |
| 20260502100148 | 13 | 334 | 11.3 | 14.5 | 0.00 | 4.83 | 0.00 | 94 | 1016.8 |
| 20260502091147 | 13 | 356 | 9.7 | 19.3 | 0.00 | 4.83 | 0.00 | 94 | 1016.7 |
| 20260502090647 | 13 | 4 | 12.9 | 19.3 | 0.00 | 4.83 | 0.00 | 94 | 1016.7 |
| 20260502090147 | 13 | 18 | 16.1 | 20.9 | 0.00 | 4.83 | 0.00 | 93 | 1016.6 |
| 20260502071146 | 13 | 12 | 19.3 | 32.2 | 0.00 | 4.83 | 0.00 | 93 | 1015.8 |
| 20260502070145 | 13 | 359 | 19.3 | 29.0 | 0.00 | 4.83 | 0.00 | 93 | 1016.0 |
| 20260502065645 | 13 | 348 | 16.1 | 32.2 | 0.00 | 4.83 | 0.00 | 93 | 1015.9 |
| 20260502065146 | 13 | 12 | 20.9 | 32.2 | 0.00 | 4.83 | 0.00 | 93 | 1015.8 |
| 20260502064645 | 13 | 22 | 19.3 | 29.0 | 0.00 | 4.83 | 0.00 | 94 | 1015.8 |
| 20260502064146 | 13 | 1 | 16.1 | 25.7 | 0.00 | 4.83 | 0.00 | 94 | 1016.0 |
| 20260502063645 | 13 | 348 | 14.5 | 25.7 | 0.00 | 4.83 | 0.00 | 94 | 1016.0 |
| 20260502063146 | 13 | 347 | 17.7 | 29.0 | 0.00 | 4.83 | 0.00 | 94 | 1016.0 |
| 20260502062645 | 13 | 347 | 16.1 | 29.0 | 0.00 | 4.83 | 0.00 | 93 | 1016.0 |
| 20260502062145 | 14 | 338 | 16.1 | 22.5 | 0.00 | 4.83 | 0.00 | 94 | 1015.9 |
| 20260502061645 | 14 | 338 | 16.1 | 37.0 | 0.00 | 4.83 | 0.00 | 93 | 1015.8 |
| 20260502061145 | 14 | 347 | 19.3 | 24.1 | 0.00 | 4.83 | 0.00 | 93 | 1015.8 |
| 20260502060646 | 14 | 345 | 12.9 | 22.5 | 0.00 | 4.83 | 0.00 | 93 | 1015.8 |
| 20260502060146 | 14 | 10 | 20.9 | 33.8 | 0.00 | 4.83 | 0.00 | 92 | 1015.8 |
| 20260502055646 | 14 | 5 | 20.9 | 32.2 | 0.00 | 4.83 | 0.00 | 92 | 1015.8 |
| 20260502053645 | 14 | 341 | 25.7 | 35.4 | 0.00 | 4.83 | 0.00 | 92 | 1015.4 |
| 20260502053145 | 14 | 0 | 17.7 | 29.0 | 0.00 | 4.83 | 0.00 | 93 | 1015.4 |
| 20260502052645 | 14 | 8 | 20.9 | 32.2 | 0.00 | 4.83 | 0.00 | 93 | 1015.3 |
| 20260502052144 | 15 | 357 | 19.3 | 32.2 | 0.00 | 4.83 | 0.00 | 93 | 1015.3 |
| 20260502051644 | 15 | 349 | 14.5 | 32.2 | 0.00 | 4.83 | 0.00 | 94 | 1015.3 |
| 20260502051144 | 15 | 2 | 16.1 | 32.2 | 0.00 | 4.83 | 0.00 | 94 | 1015.2 |
| 20260502050645 | 15 | 354 | 14.5 | 24.1 | 0.00 | 4.83 | 0.00 | 93 | 1015.2 |
| 20260502050145 | 14 | 10 | 16.1 | 32.2 | 0.00 | 4.83 | 0.00 | 93 | 1015.2 |
| 20260502045644 | 14 | 8 | 16.1 | 24.1 | 0.00 | 4.83 | 4.83 | 93 | 1015.2 |
| 20260502045146 | 14 | 7 | 16.1 | 22.5 | 0.00 | 4.83 | 4.83 | 93 | 1015.1 |
| 20260502044644 | 14 | 9 | 19.3 | 29.0 | 0.00 | 4.83 | 4.83 | 93 | 1015.1 |
| 20260502044144 | 14 | 5 | 14.5 | 25.7 | 0.00 | 4.83 | 4.83 | 93 | 1015.0 |
| 20260502043644 | 15 | 7 | 22.5 | 35.4 | 0.00 | 4.83 | 4.83 | 92 | 1014.9 |
| 20260502043144 | 15 | 354 | 19.3 | 37.0 | 0.00 | 4.83 | 4.83 | 93 | 1014.8 |
| 20260502042644 | 15 | 347 | 25.7 | 37.0 | 0.00 | 4.83 | 4.83 | 93 | 1014.7 |
| 20260502042143 | 15 | 0 | 22.5 | 32.2 | 0.00 | 4.83 | 4.83 | 93 | 1014.7 |
| 20260502041645 | 15 | 7 | 19.3 | 32.2 | 0.00 | 4.83 | 4.83 | 95 | 1014.6 |
| 20260502040645 | 15 | 1 | 11.3 | 20.9 | 0.00 | 4.83 | 4.83 | 95 | 1014.5 |
| 20260502040144 | 15 | 7 | 12.9 | 20.9 | 0.00 | 4.83 | 4.83 | 95 | 1014.5 |
| 20260502035144 | 15 | 5 | 11.3 | 19.3 | 0.00 | 4.83 | 4.83 | 94 | 1014.4 |
| 20260502034643 | 15 | 0 | 14.5 | 29.0 | 0.00 | 4.83 | 4.83 | 93 | 1014.4 |
| 20260502034143 | 15 | 0 | 19.3 | 32.2 | 0.00 | 4.83 | 4.83 | 93 | 1014.2 |
| 20260502033644 | 15 | 8 | 19.3 | 38.6 | 0.00 | 4.83 | 4.83 | 92 | 1014.2 |
| 20260502033143 | 15 | 0 | 25.7 | 38.6 | 0.00 | 4.83 | 4.83 | 92 | 1014.1 |
| 20260502032643 | 15 | 354 | 25.7 | 38.6 | 0.00 | 4.83 | 4.83 | 92 | 1014.1 |
| 20260502032143 | 15 | 354 | 25.7 | 38.6 | 0.00 | 4.83 | 4.83 | 93 | 1014.0 |
| 20260502031144 | 15 | 352 | 16.1 | 32.2 | 0.00 | 4.83 | 4.83 | 94 | 1014.0 |
| 20260502030643 | 15 | 3 | 20.9 | 35.4 | 0.00 | 4.83 | 4.83 | 94 | 1013.9 |
| 20260502025642 | 15 | 349 | 16.1 | 29.0 | 0.00 | 4.83 | 4.83 | 95 | 1013.7 |
| 20260502025146 | 16 | 344 | 17.7 | 29.0 | 0.00 | 4.83 | 4.83 | 95 | 1013.6 |
| 20260502024643 | 16 | 345 | 19.3 | 32.2 | 0.00 | 4.83 | 4.83 | 95 | 1013.4 |
| 20260502024143 | 16 | 0 | 19.3 | 29.0 | 0.00 | 4.83 | 4.83 | 95 | 1013.4 |
| 20260502023143 | 16 | 6 | 19.3 | 25.7 | 0.00 | 4.83 | 4.83 | 95 | 1013.1 |
| 20260502022143 | 16 | 1 | 19.3 | 32.2 | 0.00 | 4.83 | 4.83 | 95 | 1012.9 |
| 20260502021143 | 16 | 1 | 20.9 | 32.2 | 0.00 | 4.83 | 4.83 | 95 | 1012.8 |
| 20260502020642 | 16 | 349 | 19.3 | 33.8 | 0.00 | 4.83 | 4.83 | 95 | 1012.6 |
| 20260502020142 | 16 | 7 | 22.5 | 33.8 | 0.00 | 4.83 | 4.83 | 95 | 1012.4 |
| 20260502015642 | 16 | 2 | 16.1 | 24.1 | 0.00 | 4.83 | 4.83 | 96 | 1012.3 |
| 20260502015142 | 16 | 357 | 19.3 | 32.2 | 0.00 | 4.83 | 4.83 | 96 | 1012.1 |
| 20260502014643 | 16 | 8 | 19.3 | 29.0 | 0.00 | 4.83 | 4.83 | 96 | 1012.2 |
| 20260502014142 | 16 | 11 | 19.3 | 32.2 | 0.03 | 4.83 | 4.83 | 96 | 1011.8 |
| 20260502013642 | 16 | 357 | 20.9 | 33.8 | 0.03 | 4.83 | 4.83 | 96 | 1011.8 |
| 20260502013142 | 16 | 352 | 12.9 | 20.9 | 0.03 | 4.83 | 4.83 | 96 | 1011.8 |
| 20260502012642 | 16 | 2 | 14.5 | 22.5 | 0.03 | 4.83 | 4.83 | 96 | 1011.7 |
| 20260502012143 | 16 | 358 | 14.5 | 25.7 | 0.03 | 4.83 | 4.83 | 96 | 1011.8 |
| 20260502011642 | 16 | 6 | 19.3 | 32.2 | 0.03 | 4.83 | 4.83 | 96 | 1011.5 |
| 20260502011142 | 16 | 2 | 16.1 | 25.7 | 0.03 | 4.83 | 4.83 | 96 | 1011.6 |
| 20260502010642 | 16 | 358 | 17.7 | 32.2 | 0.05 | 4.83 | 4.83 | 96 | 1011.5 |
| 20260502010142 | 16 | 0 | 20.9 | 32.2 | 0.05 | 4.83 | 4.83 | 96 | 1011.2 |
| 20260502005643 | 16 | 1 | 20.9 | 32.2 | 0.05 | 4.83 | 4.83 | 96 | 1011.1 |
| 20260502005141 | 16 | 358 | 16.1 | 37.0 | 0.08 | 4.83 | 4.83 | 96 | 1011.1 |
| 20260502004641 | 16 | 359 | 16.1 | 29.0 | 0.10 | 4.83 | 4.83 | 96 | 1010.9 |
| 20260502004142 | 16 | 346 | 22.5 | 40.2 | 0.08 | 4.80 | 4.80 | 96 | 1010.7 |
| 20260502003641 | 16 | 352 | 25.7 | 37.0 | 0.08 | 4.80 | 4.80 | 96 | 1010.7 |
| 20260502003141 | 16 | 348 | 16.1 | 35.4 | 0.08 | 4.80 | 4.80 | 96 | 1010.8 |
| 20260502002642 | 16 | 348 | 27.4 | 41.8 | 0.08 | 4.80 | 4.80 | 96 | 1010.8 |
| 20260502001641 | 16 | 348 | 27.4 | 38.6 | 0.10 | 4.80 | 4.80 | 96 | 1010.8 |
| 20260502001141 | 16 | 336 | 27.4 | 45.1 | 0.13 | 4.80 | 4.80 | 96 | 1011.3 |
| 20260502000641 | 16 | 342 | 20.9 | 33.8 | 0.13 | 4.78 | 4.78 | 97 | 1011.2 |
| 20260502000142 | 16 | 338 | 22.5 | 32.2 | 0.18 | 4.78 | 4.78 | 96 | 1011.5 |
| 20260501235641 | 16 | 336 | 16.1 | 35.4 | 0.25 | 4.78 | 4.78 | 97 | 1011.4 |
| 20260501235142 | 17 | 322 | 24.1 | 41.8 | 0.38 | 4.75 | 4.75 | 96 | 1011.3 |
| 20260501234641 | 17 | 346 | 25.7 | 33.8 | 0.69 | 4.72 | 4.72 | 97 | 1010.8 |
| 20260501234141 | 17 | 333 | 20.9 | 35.4 | 1.47 | 4.72 | 4.72 | 97 | 1010.8 |
| 20260501233141 | 17 | 330 | 20.9 | 32.2 | 1.85 | 4.72 | 4.72 | 97 | 1010.7 |
| 20260501232642 | 17 | 326 | 20.9 | 37.0 | 1.85 | 4.72 | 4.72 | 97 | 1010.5 |
| 20260501232140 | 17 | 330 | 19.3 | 38.6 | 1.83 | 4.70 | 4.70 | 97 | 1010.3 |
| 20260501231640 | 17 | 343 | 22.5 | 35.4 | 1.83 | 4.70 | 4.70 | 97 | 1009.6 |
| 20260501231140 | 17 | 344 | 20.9 | 41.8 | 1.80 | 4.67 | 4.67 | 97 | 1009.7 |
| 20260501230640 | 17 | 327 | 22.5 | 35.4 | 1.80 | 4.65 | 4.65 | 97 | 1009.7 |
| 20260501225140 | 17 | 337 | 29.0 | 41.8 | 1.55 | 4.37 | 4.37 | 97 | 1009.6 |
| 20260501224640 | 17 | 350 | 19.3 | 38.6 | 1.22 | 4.04 | 4.04 | 97 | 1009.1 |
| 20260501224141 | 18 | 304 | 38.6 | 48.3 | 0.43 | 3.25 | 3.25 | 97 | 1010.1 |
| 20260501223640 | 18 | 308 | 25.7 | 35.4 | 0.05 | 2.87 | 2.87 | 96 | 1009.6 |
| 20260501223139 | 17 | 358 | 20.9 | 33.8 | 0.05 | 2.87 | 2.87 | 96 | 1008.0 |
| 20260501222640 | 17 | 32 | 19.3 | 32.2 | 0.05 | 2.87 | 2.87 | 96 | 1007.5 |
| 20260501222140 | 17 | 37 | 19.3 | 32.2 | 0.05 | 2.87 | 2.87 | 97 | 1006.9 |
| 20260501221140 | 17 | 38 | 19.3 | 29.0 | 0.05 | 2.87 | 2.87 | 97 | 1007.5 |
| 20260501220641 | 17 | 31 | 17.7 | 24.1 | 0.03 | 2.84 | 2.84 | 99 | 1007.5 |
| 20260501220139 | 17 | 31 | 16.1 | 29.0 | 0.03 | 2.84 | 2.84 | 98 | 1007.4 |
| 20260501215639 | 17 | 32 | 19.3 | 32.2 | 0.03 | 2.84 | 2.84 | 98 | 1007.4 |
| 20260501215140 | 17 | 35 | 19.3 | 25.7 | 0.00 | 2.82 | 2.82 | 98 | 1007.6 |
| 20260501214639 | 17 | 6 | 19.3 | 25.7 | 0.00 | 2.82 | 2.82 | 97 | 1008.1 |
| 20260501214140 | 17 | 14 | 16.1 | 25.7 | 0.00 | 2.82 | 2.82 | 97 | 1008.3 |
| 20260501213639 | 17 | 23 | 14.5 | 24.1 | 0.00 | 2.82 | 2.82 | 97 | 1008.3 |
| 20260501213140 | 17 | 25 | 17.7 | 32.2 | 0.00 | 2.82 | 2.82 | 97 | 1008.3 |
| 20260501212639 | 17 | 18 | 20.9 | 35.4 | 0.00 | 2.82 | 2.82 | 97 | 1008.0 |
| 20260501212139 | 17 | 38 | 16.1 | 25.7 | 0.00 | 2.82 | 2.82 | 97 | 1008.0 |
| 20260501211639 | 17 | 26 | 14.5 | 22.5 | 0.00 | 2.82 | 2.82 | 98 | 1008.1 |
| 20260501211139 | 17 | 20 | 17.7 | 24.1 | 2.74 | 2.82 | 2.82 | 97 | 1008.3 |
| 20260501210639 | 17 | 19 | 16.1 | 32.2 | 2.74 | 2.82 | 2.82 | 97 | 1008.3 |
| 20260501210138 | 17 | 17 | 20.9 | 33.8 | 2.74 | 2.82 | 2.82 | 97 | 1008.3 |
| 20260501205639 | 17 | 12 | 22.5 | 35.4 | 2.74 | 2.82 | 2.82 | 98 | 1008.3 |
| 20260501205139 | 17 | 19 | 24.1 | 37.0 | 2.74 | 2.82 | 2.82 | 98 | 1008.4 |
| 20260501204638 | 17 | 6 | 19.3 | 32.2 | 2.77 | 2.82 | 2.82 | 98 | 1008.4 |
| 20260501203638 | 18 | 1 | 19.3 | 35.4 | 2.77 | 2.82 | 2.82 | 98 | 1008.3 |
| 20260501203139 | 18 | 0 | 20.9 | 35.4 | 2.77 | 2.82 | 2.82 | 98 | 1008.3 |
| 20260501202638 | 18 | 359 | 22.5 | 35.4 | 2.77 | 2.82 | 2.82 | 98 | 1008.1 |
| 20260501202138 | 18 | 0 | 20.9 | 35.4 | 2.82 | 2.82 | 2.82 | 99 | 1008.1 |
| 20260501201638 | 18 | 3 | 19.3 | 32.2 | 2.82 | 2.82 | 2.82 | 99 | 1008.0 |
| 20260501201138 | 17 | 6 | 25.7 | 37.0 | 0.08 | 0.08 | 0.08 | 99 | 1008.0 |
| 20260501200638 | 17 | 340 | 14.5 | 35.4 | 0.08 | 0.08 | 0.08 | 99 | 1008.6 |
| 20260501200139 | 17 | 333 | 24.1 | 33.8 | 0.08 | 0.08 | 0.08 | 100 | 1008.2 |
| 20260501195639 | 17 | 327 | 27.4 | 45.1 | 0.08 | 0.08 | 0.08 | 100 | 1007.5 |
| 20260501195138 | 17 | 323 | 27.4 | 41.8 | 0.08 | 0.08 | 0.08 | 99 | 1007.5 |
| 20260501194137 | 17 | 338 | 22.5 | 35.4 | 0.05 | 0.05 | 0.05 | 99 | 1007.4 |
| 20260501193639 | 18 | 349 | 29.0 | 40.2 | 0.05 | 0.05 | 0.05 | 99 | 1007.4 |
| 20260501193138 | 18 | 311 | 29.0 | 78.9 | 0.05 | 0.05 | 0.05 | 99 | 1007.4 |
| 20260501192637 | 18 | 42 | 25.7 | 40.2 | 0.05 | 0.05 | 0.05 | 100 | 1007.0 |
| 20260501190139 | 18 | 51 | 19.3 | 32.2 | 0.15 | 0.38 | 0.38 | 97 | 1004.0 |
| 20260501185639 | 18 | 50 | 20.9 | 32.2 | 0.23 | 0.38 | 0.38 | 97 | 1004.4 |
| 20260501185139 | 18 | 57 | 20.9 | 33.8 | 0.23 | 0.38 | 0.38 | 97 | 1004.6 |
| 20260501184639 | 18 | 55 | 16.1 | 29.0 | 0.20 | 0.36 | 0.36 | 97 | 1005.6 |
| 20260501184139 | 18 | 60 | 14.5 | 25.7 | 0.23 | 0.36 | 0.36 | 97 | 1006.2 |
| 20260501183640 | 18 | 53 | 20.9 | 33.8 | 0.23 | 0.36 | 0.36 | 97 | 1006.3 |
| 20260501183138 | 18 | 52 | 22.5 | 33.8 | 0.23 | 0.36 | 0.36 | 97 | 1006.6 |
| 20260501182138 | 18 | 37 | 19.3 | 25.7 | 0.30 | 0.33 | 0.33 | 97 | 1007.6 |
| 20260501181638 | 18 | 26 | 16.1 | 22.5 | 0.33 | 0.33 | 0.33 | 97 | 1008.0 |
| 20260501180639 | 18 | 58 | 16.1 | 27.4 | 0.28 | 0.28 | 0.28 | 97 | 1008.3 |
| 20260501180138 | 18 | 58 | 17.7 | 27.4 | 0.23 | 0.23 | 0.23 | 97 | 1008.1 |
| 20260501175638 | 18 | 43 | 16.1 | 20.9 | 0.15 | 0.15 | 0.15 | 97 | 1008.3 |
| 20260501175138 | 18 | 13 | 14.5 | 25.7 | 0.15 | 0.15 | 0.15 | 97 | 1008.8 |
| 20260501174138 | 18 | 34 | 19.3 | 27.4 | 0.13 | 0.13 | 0.13 | 97 | 1008.7 |
| 20260501173639 | 18 | 31 | 14.5 | 20.9 | 0.13 | 0.13 | 0.13 | 97 | 1008.4 |
| 20260501173138 | 18 | 32 | 12.9 | 19.3 | 0.13 | 0.13 | 0.13 | 97 | 1008.3 |
| 20260501172637 | 18 | 43 | 14.5 | 24.1 | 0.08 | 0.08 | 0.08 | 97 | 1008.1 |
| 20260501171638 | 18 | 50 | 17.7 | 25.7 | 0.00 | 0.00 | 0.00 | 96 | 1008.4 |
| 20260501170638 | 18 | 41 | 17.7 | 24.1 | 0.00 | 0.00 | 0.00 | 95 | 1008.7 |
| 20260501170138 | 18 | 40 | 16.1 | 25.7 | 0.00 | 0.00 | 0.00 | 94 | 1008.7 |
| 20260501165637 | 18 | 39 | 14.5 | 27.4 | 0.00 | 0.00 | 0.00 | 93 | 1008.7 |
| 20260501165137 | 18 | 35 | 16.1 | 27.4 | 0.00 | 0.00 | 0.00 | 93 | 1008.9 |
| 20260501164637 | 18 | 39 | 16.1 | 24.1 | 0.00 | 0.00 | 0.00 | 92 | 1009.0 |
| 20260501163138 | 18 | 31 | 19.3 | 25.7 | 0.00 | 0.00 | 0.00 | 93 | 1009.1 |
| 20260501162637 | 18 | 40 | 16.1 | 27.4 | 0.00 | 0.00 | 0.00 | 93 | 1009.3 |
| 20260501162137 | 18 | 21 | 19.3 | 27.4 | 0.00 | 0.00 | 0.00 | 93 | 1009.4 |
| 20260501161637 | 18 | 17 | 14.5 | 24.1 | 0.00 | 0.00 | 0.00 | 94 | 1009.7 |
| 20260501161137 | 18 | 18 | 19.3 | 27.4 | 0.00 | 0.00 | 0.00 | 94 | 1009.5 |
| 20260501160637 | 18 | 11 | 16.1 | 25.7 | 0.00 | 0.00 | 0.00 | 94 | 1009.8 |
| 20260501160137 | 18 | 11 | 16.1 | 29.0 | 0.00 | 0.00 | 0.00 | 94 | 1009.8 |
| 20260501155638 | 18 | 5 | 16.1 | 27.4 | 0.00 | 0.00 | 0.00 | 93 | 1009.8 |
| 20260501155137 | 18 | 8 | 11.3 | 25.7 | 0.00 | 0.00 | 0.00 | 94 | 1009.8 |
| 20260501154636 | 18 | 12 | 22.5 | 29.0 | 0.00 | 0.00 | 0.00 | 94 | 1009.7 |
| 20260501154136 | 18 | 14 | 19.3 | 29.0 | 0.00 | 0.00 | 0.00 | 93 | 1009.9 |
| 20260501153137 | 18 | 352 | 19.3 | 29.0 | 0.00 | 0.00 | 0.00 | 93 | 1010.5 |
| 20260501152137 | 19 | 358 | 14.5 | 24.1 | 0.00 | 0.00 | 0.00 | 92 | 1010.1 |
| 20260501151636 | 19 | 11 | 14.5 | 24.1 | 0.00 | 0.00 | 0.00 | 92 | 1009.6 |
| 20260501151136 | 19 | 21 | 14.5 | 24.1 | 0.00 | 0.00 | 0.00 | 92 | 1009.4 |
| 20260501150637 | 19 | 26 | 16.1 | 22.5 | 0.00 | 0.00 | 0.00 | 92 | 1009.3 |
| 20260501150135 | 19 | 25 | 14.5 | 22.5 | 0.00 | 0.00 | 0.00 | 93 | 1009.3 |
| 20260501145636 | 19 | 32 | 14.5 | 20.9 | 0.00 | 0.00 | 0.00 | 93 | 1009.1 |
| 20260501145136 | 19 | 30 | 11.3 | 20.9 | 0.00 | 0.00 | 0.00 | 93 | 1009.0 |
| 20260501144635 | 19 | 46 | 8.0 | 12.9 | 0.00 | 0.00 | 0.00 | 93 | 1009.0 |
| 20260501144136 | 19 | 24 | 16.1 | 22.5 | 0.00 | 0.00 | 0.00 | 94 | 1009.1 |
| 20260501143636 | 19 | 30 | 19.3 | 25.7 | 0.00 | 0.00 | 0.00 | 94 | 1009.3 |
| 20260501143137 | 19 | 26 | 11.3 | 22.5 | 0.00 | 0.00 | 0.00 | 94 | 1009.0 |
| 20260501142135 | 19 | 21 | 16.1 | 22.5 | 0.00 | 0.00 | 0.00 | 95 | 1009.4 |